When you browse on this site, cookies collect data to enhance your experience and personalize the content and advertising you see.
Visit our Privacy Policy to learn more. By continuing to use the site, you agree to this use of cookies and data.
  • Em Portugal
  • Lista de países
  • Para 7 dias
  • Temperatura da água
  • Mapas de satélite
  • Mapa do tempo
  • Widgets de tempo
  • user-avatar
    Iniciar Sessão

    Previsão horária em Balewo

    Hoje, 16 Julho, Terça-feira

    Tempo Temperatura Precipitação Vento Pressão Humidade
    00:00 +14°C° 0 mm 1 m/s 752 mmHg 94%
    01:00 +14°C° 0 mm 1 m/s 752 mmHg 94%
    02:00 +14°C° 0 mm 1 m/s 752 mmHg 93%
    03:00 +14°C° 0 mm 2 m/s 751 mmHg 93%
    04:00 +15°C° 0 mm 2 m/s 751 mmHg 92%
    05:00 +14°C° 0 mm 3 m/s 751 mmHg 88%
    06:00 +14°C° 0 mm 3 m/s 750 mmHg 83%
    07:00 +14°C° 0 mm 4 m/s 750 mmHg 79%
    08:00 +14°C° 0.3 mm 4 m/s 750 mmHg 80%
    09:00 +14°C° 0.3 mm 3 m/s 750 mmHg 81%
    10:00 +14°C° 0.3 mm 3 m/s 750 mmHg 82%
    11:00 +15°C° 0.8 mm 4 m/s 750 mmHg 81%
    12:00 +18°C° 0.8 mm 4 m/s 750 mmHg 79%
    13:00 +19°C° 0.8 mm 5 m/s 750 mmHg 78%
    14:00 +19°C° 0.3 mm 4 m/s 750 mmHg 73%
    15:00 +19°C° 0.3 mm 4 m/s 750 mmHg 69%
    16:00 +19°C° 0.3 mm 4 m/s 750 mmHg 64%
    17:00 +18°C° 0.1 mm 3 m/s 750 mmHg 69%
    18:00 +17°C° 0.1 mm 2 m/s 750 mmHg 73%
    19:00 +16°C° 0.1 mm 1 m/s 750 mmHg 78%
    20:00 +15°C° 0 mm 2 m/s 750 mmHg 79%
    21:00 +15°C° 0 mm 2 m/s 750 mmHg 81%
    22:00 +13°C° 0 mm 3 m/s 750 mmHg 83%
    23:00 +13°C° 0.1 mm 3 m/s 750 mmHg 84%

    Amanhã, 17 Julho, Quarta-feira

    Tempo Temperatura Precipitação Vento Pressão Humidade
    00:00 +13°C° 0.1 mm 3 m/s 750 mmHg 86%
    01:00 +13°C° 0.1 mm 4 m/s 750 mmHg 87%
    02:00 +12°C° 0 mm 4 m/s 749 mmHg 89%
    03:00 +12°C° 0 mm 4 m/s 749 mmHg 90%
    04:00 +11°C° 0 mm 4 m/s 749 mmHg 92%
    05:00 +12°C° 0.1 mm 5 m/s 749 mmHg 89%
    06:00 +13°C° 0.1 mm 6 m/s 749 mmHg 86%
    07:00 +14°C° 0.1 mm 7 m/s 750 mmHg 83%
    08:00 +15°C° 0.3 mm 7 m/s 750 mmHg 80%
    09:00 +16°C° 0.3 mm 6 m/s 750 mmHg 77%
    10:00 +16°C° 0.3 mm 6 m/s 750 mmHg 75%
    11:00 +17°C° 0.1 mm 6 m/s 750 mmHg 70%
    12:00 +19°C° 0.1 mm 6 m/s 751 mmHg 66%
    13:00 +19°C° 0.1 mm 6 m/s 751 mmHg 61%
    14:00 +19°C° 0 mm 6 m/s 751 mmHg 62%
    15:00 +19°C° 0 mm 6 m/s 751 mmHg 63%
    16:00 +19°C° 0 mm 6 m/s 751 mmHg 65%
    17:00 +17°C° 0 mm 5 m/s 751 mmHg 70%
    18:00 +16°C° 0 mm 5 m/s 751 mmHg 76%
    19:00 +15°C° 0 mm 4 m/s 751 mmHg 82%
    20:00 +14°C° 0 mm 4 m/s 751 mmHg 84%
    21:00 +14°C° 0 mm 4 m/s 751 mmHg 86%
    22:00 +13°C° 0 mm 4 m/s 752 mmHg 88%
    23:00 +13°C° 0 mm 3 m/s 752 mmHg 91%

    Depois de amanhã, 18 Julho, Quinta-feira

    Tempo Temperatura Precipitação Vento Pressão Humidade
    00:00 +12°C° 0 mm 3 m/s 752 mmHg 94%
    01:00 +12°C° 0 mm 3 m/s 752 mmHg 97%
    02:00 +11°C° 0 mm 3 m/s 752 mmHg 97%
    03:00 +11°C° 0 mm 3 m/s 752 mmHg 97%
    04:00 +11°C° 0 mm 3 m/s 752 mmHg 97%
    05:00 +13°C° 0 mm 3 m/s 752 mmHg 92%
    06:00 +16°C° 0 mm 3 m/s 752 mmHg 87%
    07:00 +18°C° 0 mm 3 m/s 752 mmHg 82%
    08:00 +19°C° 0 mm 4 m/s 752 mmHg 75%
    09:00 +20°C° 0 mm 4 m/s 752 mmHg 68%
    10:00 +21°C° 0 mm 4 m/s 753 mmHg 61%
    11:00 +22°C° 0 mm 4 m/s 752 mmHg 59%
    12:00 +22°C° 0 mm 4 m/s 752 mmHg 58%
    13:00 +22°C° 0 mm 4 m/s 752 mmHg 56%
    14:00 +22°C° 0 mm 4 m/s 752 mmHg 58%
    15:00 +22°C° 0 mm 4 m/s 752 mmHg 59%
    16:00 +21°C° 0 mm 4 m/s 752 mmHg 61%
    17:00 +20°C° 0 mm 4 m/s 752 mmHg 68%
    18:00 +19°C° 0 mm 3 m/s 752 mmHg 75%
    19:00 +17°C° 0 mm 2 m/s 753 mmHg 82%
    20:00 +16°C° 0 mm 1 m/s 753 mmHg 85%
    21:00 +15°C° 0 mm 1 m/s 753 mmHg 89%
    22:00 +13°C° 0 mm 1 m/s 753 mmHg 92%
    23:00 +12°C° 0 mm 0 m/s 753 mmHg 92%

    19 Julho, Sexta-feira

    Tempo Temperatura Precipitação Vento Pressão Humidade
    00:00 +11°C° 0 mm 0 m/s 753 mmHg 92%
    01:00 +11°C° 0 mm 0 m/s 753 mmHg 92%
    02:00 +11°C° 0 mm 0 m/s 753 mmHg 92%
    03:00 +11°C° 0 mm 0 m/s 753 mmHg 92%
    04:00 +11°C° 0 mm 0 m/s 753 mmHg 91%
    05:00 +13°C° 0 mm 0 m/s 753 mmHg 85%
    06:00 +15°C° 0 mm 0 m/s 753 mmHg 80%
    07:00 +17°C° 0 mm 0 m/s 753 mmHg 74%
    08:00 +20°C° 0 mm 1 m/s 753 mmHg 68%
    09:00 +22°C° 0 mm 1 m/s 754 mmHg 62%
    10:00 +24°C° 0 mm 1 m/s 754 mmHg 56%
    11:00 +24°C° 0 mm 1 m/s 754 mmHg 55%
    12:00 +25°C° 0 mm 1 m/s 753 mmHg 53%
    13:00 +26°C° 0 mm 1 m/s 753 mmHg 52%
    14:00 +25°C° 0.1 mm 1 m/s 753 mmHg 53%
    15:00 +25°C° 0.1 mm 1 m/s 753 mmHg 55%
    16:00 +25°C° 0.1 mm 1 m/s 753 mmHg 56%
    17:00 +24°C° 0.3 mm 1 m/s 753 mmHg 63%
    18:00 +22°C° 0.3 mm 1 m/s 753 mmHg 70%
    19:00 +20°C° 0.3 mm 2 m/s 753 mmHg 77%
    20:00 +19°C° 0 mm 2 m/s 753 mmHg 79%
    21:00 +18°C° 0 mm 2 m/s 753 mmHg 82%
    22:00 +16°C° 0 mm 2 m/s 754 mmHg 84%
    23:00 +16°C° 0 mm 2 m/s 754 mmHg 85%

    20 Julho, Sábado

    Tempo Temperatura Precipitação Vento Pressão Humidade
    00:00 +16°C° 0 mm 2 m/s 754 mmHg 85%
    01:00 +15°C° 0 mm 2 m/s 754 mmHg 86%
    02:00 +15°C° 0 mm 1 m/s 754 mmHg 86%
    03:00 +15°C° 0 mm 1 m/s 754 mmHg 86%
    04:00 +15°C° 0 mm 1 m/s 754 mmHg 86%
    05:00 +16°C° 0 mm 1 m/s 754 mmHg 83%
    06:00 +18°C° 0 mm 1 m/s 754 mmHg 81%
    07:00 +19°C° 0 mm 1 m/s 754 mmHg 79%
    08:00 +19°C° 0.1 mm 1 m/s 754 mmHg 80%
    09:00 +18°C° 0.1 mm 2 m/s 755 mmHg 81%
    10:00 +19°C° 0.1 mm 2 m/s 755 mmHg 81%
    11:00 +21°C° 0 mm 2 m/s 755 mmHg 73%
    12:00 +24°C° 0 mm 2 m/s 754 mmHg 65%
    13:00 +26°C° 0 mm 2 m/s 754 mmHg 56%
    14:00 +26°C° 0.4 mm 2 m/s 754 mmHg 59%
    15:00 +25°C° 0.4 mm 2 m/s 754 mmHg 62%
    16:00 +25°C° 0.4 mm 1 m/s 754 mmHg 64%
    17:00 +24°C° 0.4 mm 2 m/s 754 mmHg 71%
    18:00 +23°C° 0.4 mm 2 m/s 754 mmHg 77%
    19:00 +21°C° 0.4 mm 2 m/s 754 mmHg 84%
    20:00 +20°C° 0 mm 2 m/s 754 mmHg 86%
    21:00 +19°C° 0 mm 2 m/s 755 mmHg 88%
    22:00 +18°C° 0 mm 2 m/s 755 mmHg 90%
    23:00 +17°C° 0 mm 2 m/s 755 mmHg 90%

    21 Julho, Domingo

    Tempo Temperatura Precipitação Vento Pressão Humidade
    00:00 +18°C° 0 mm 1 m/s 755 mmHg 91%
    01:00 +18°C° 0 mm 1 m/s 755 mmHg 91%
    02:00 +16°C° 0 mm 1 m/s 755 mmHg 92%
    03:00 +16°C° 0 mm 1 m/s 755 mmHg 92%
    04:00 +16°C° 0 mm 1 m/s 754 mmHg 92%
    05:00 +18°C° 0 mm 1 m/s 755 mmHg 90%
    06:00 +18°C° 0 mm 2 m/s 755 mmHg 88%
    07:00 +20°C° 0 mm 2 m/s 755 mmHg 85%
    08:00 +20°C° 0.1 mm 2 m/s 755 mmHg 82%
    09:00 +21°C° 0.1 mm 2 m/s 755 mmHg 78%
    10:00 +21°C° 0.1 mm 2 m/s 755 mmHg 75%
    11:00 +24°C° 0.2 mm 2 m/s 755 mmHg 69%
    12:00 +25°C° 0.2 mm 2 m/s 755 mmHg 63%
    13:00 +26°C° 0.2 mm 2 m/s 755 mmHg 57%
    14:00 +26°C° 0.2 mm 2 m/s 755 mmHg 58%
    15:00 +25°C° 0.2 mm 2 m/s 755 mmHg 59%
    16:00 +25°C° 0.2 mm 2 m/s 755 mmHg 61%
    17:00 +24°C° 0.5 mm 1 m/s 755 mmHg 68%
    18:00 +23°C° 0.5 mm 1 m/s 755 mmHg 74%
    19:00 +22°C° 0.5 mm 1 m/s 755 mmHg 81%
    20:00 +20°C° 0.1 mm 1 m/s 755 mmHg 84%
    21:00 +19°C° 0.1 mm 1 m/s 756 mmHg 87%
    22:00 +18°C° 0.1 mm 1 m/s 756 mmHg 91%
    23:00 +16°C° 0 mm 1 m/s 756 mmHg 91%
    Mostrar mais